GFSSE_prec_cthk_336.txt.gz
RH
51 49 45 45 47 42 39 33 24 24 35 52 61 62 68 69 68 65 64 57 57 64 65 61 63 52 47 44 44 39 33 27 24 24 21 20 20 19 17 20 22 25 30
43 44 46 44 44 42 38 32 23 26 38 51 64 66 70 74 71 63 64 49 55 63 60 57 52 50 45 47 44 41 29 29 28 30 30 28 25 19 18 19 22 25 30
40 43 46 43 37 33 28 26 22 29 41 50 62 71 71 75 76 62 58 51 49 59 58 58 51 51 46 42 39 36 35 31 33 34 32 26 21 17 17 18 22 30 31
40 40 42 41 35 25 20 21 23 31 42 52 65 77 79 80 78 68 54 59 48 52 52 51 49 51 48 34 33 41 40 40 37 32 28 23 22 18 20 26 32 37 34
39 38 40 40 36 26 19 21 24 32 46 55 72 80 82 83 84 75 57 57 52 51 54 46 49 51 40 36 38 44 43 40 36 30 25 22 25 27 30 34 37 31 28
39 38 39 39 38 33 23 21 24 34 48 63 77 82 87 87 85 77 67 60 56 58 53 46 48 46 49 50 45 43 43 43 34 28 25 30 29 28 31 30 24 23 24
37 35 37 41 42 41 32 24 26 39 54 68 79 85 89 90 87 83 68 62 61 69 58 53 53 54 52 50 48 48 44 38 31 28 31 32 28 28 29 18 15 16 17
38 35 39 41 45 45 38 33 34 46 57 72 80 87 90 87 87 83 78 67 70 75 64 59 61 59 58 51 49 49 44 39 35 37 34 29 28 30 20 9 10 12 9
41 40 43 43 48 50 42 38 44 55 58 70 81 89 93 91 88 84 81 74 68 71 65 66 66 63 63 51 59 56 43 40 42 40 32 28 31 28 11 7 7 6 8
35 40 43 46 49 48 44 43 50 58 59 69 82 90 96 96 92 89 86 80 71 70 65 68 66 63 60 51 57 56 51 46 45 39 31 33 33 20 9 7 6 7 9
28 34 38 40 48 50 47 47 51 57 61 69 85 92 97 97 93 89 87 87 88 79 68 67 68 65 66 59 52 54 51 47 44 37 36 35 27 13 8 6 6 8 12
31 29 38 40 45 52 51 49 52 58 64 71 84 95 97 97 94 94 93 90 92 79 77 73 74 71 71 60 52 49 45 44 42 38 38 30 26 9 7 6 7 10 12
33 28 34 40 43 51 51 52 56 60 63 73 84 93 98 95 95 97 99 97 92 85 82 78 79 73 72 54 46 44 45 43 39 41 32 28 15 8 8 7 9 10 13
37 34 34 43 45 50 53 54 56 61 64 74 87 94 96 98 98 98 95 97 97 85 77 84 77 75 73 53 49 53 47 42 42 38 32 22 9 10 9 9 10 12 12
39 39 33 41 51 51 56 58 59 62 64 71 84 95 98 97 97 92 96 97 94 89 85 85 82 81 63 57 60 63 50 41 41 40 34 18 9 10 11 11 12 13 15
25 41 40 37 44 53 58 59 63 65 64 70 80 94 98 97 92 97 98 96 98 95 77 84 81 67 62 64 69 68 47 45 42 42 36 23 11 10 11 12 14 16 17
15 24 45 38 42 51 58 62 64 67 65 67 78 93 98 93 92 89 81 71 67 79 79 79 62 59 66 73 67 65 48 43 44 43 37 28 15 13 14 14 16 18 18
18 18 24 38 34 38 52 63 67 70 71 69 79 89 98 96 92 78 56 46 44 45 49 60 60 60 61 70 73 55 47 44 47 44 40 33 24 17 18 18 18 18 19
26 25 21 29 36 32 45 58 69 72 72 70 73 85 86 99 97 86 63 44 44 47 51 58 65 70 78 78 73 56 44 47 48 44 41 38 36 23 22 21 20 18 18
21 31 33 25 30 30 38 54 70 76 74 75 68 78 87 94 97 96 77 48 48 52 58 60 68 83 86 88 79 52 40 51 49 45 43 38 40 37 35 26 23 22 17
22 29 46 40 27 30 36 46 58 72 78 77 76 74 95 92 98 96 85 56 55 59 63 64 76 90 92 92 90 48 42 52 50 47 44 39 40 41 38 34 28 23 19
29 34 44 58 50 23 28 35 46 61 76 80 79 71 76 94 90 91 88 61 60 72 69 78 77 91 95 96 91 51 42 54 52 46 44 39 39 40 39 37 30 24 22
36 39 44 46 63 53 32 35 51 63 77 85 79 72 77 75 85 84 85 79 79 94 96 88 90 84 89 97 88 38 44 56 50 46 45 40 38 38 39 40 36 30 25
39 43 48 51 57 73 60 52 38 47 58 75 82 76 77 78 77 75 80 90 92 94 98 95 94 93 92 86 73 42 44 53 47 45 45 42 38 38 39 41 39 36 30
43 44 48 56 58 69 80 63 54 45 50 63 84 82 85 79 71 61 78 84 90 91 98 97 96 98 97 87 65 39 37 47 46 45 44 41 41 41 40 39 39 36 33
49 46 46 50 64 64 78 71 72 59 52 57 75 91 82 83 77 67 72 73 74 83 93 97 99 97 93 87 68 38 32 38 48 48 42 42 41 40 43 45 41 36 38

GFSSE_prec_cthk_339.txt.gz
RH
49 41 40 43 46 42 42 40 36 28 25 38 53 62 63 62 70 68 70 68 73 76 74 70 49 50 48 49 44 38 34 33 25 23 25 24 21 19 21 24 28 34 36
48 41 42 45 45 40 35 32 33 27 25 37 54 63 71 66 74 67 69 65 62 68 67 61 50 53 47 46 39 33 30 28 27 30 29 25 22 19 22 25 26 30 27
45 43 44 44 43 38 30 26 25 21 27 38 53 62 75 72 77 67 66 61 57 60 59 54 54 52 52 44 41 31 29 32 37 38 33 27 21 19 19 22 27 29 32
43 43 43 40 40 36 27 21 20 21 27 41 53 60 76 77 79 75 63 63 54 61 56 55 51 48 46 44 37 35 35 36 37 36 30 24 22 21 23 28 34 33 35
42 41 42 40 38 38 31 22 18 23 28 42 57 65 79 79 81 78 63 67 54 55 59 52 52 49 44 35 34 39 43 39 37 30 23 25 26 28 33 37 36 32 32
43 40 41 40 39 38 36 30 22 24 31 42 56 72 84 84 82 80 70 68 59 51 49 44 51 49 39 34 37 43 42 42 34 27 25 30 30 31 33 28 24 25 25
42 42 39 40 39 40 41 38 31 28 33 47 60 76 87 91 88 87 75 63 63 56 46 47 45 48 44 37 37 42 45 40 30 25 28 30 28 29 26 18 16 18 18
38 39 40 40 40 41 46 44 38 36 43 52 62 77 88 93 93 86 80 71 67 57 47 44 47 50 50 44 45 47 45 38 32 34 33 29 28 29 15 10 12 14 11
39 37 38 40 40 43 50 46 44 46 53 56 63 78 90 94 94 88 80 75 67 55 55 57 58 56 48 45 49 50 43 35 38 39 33 28 29 24 8 7 11 10 10
39 34 34 38 40 45 51 45 46 53 56 61 66 78 91 96 96 92 84 82 67 59 64 67 65 63 54 48 54 51 43 41 42 41 33 30 30 15 9 10 11 10 11
46 39 35 34 37 43 51 50 49 57 57 62 70 80 93 95 95 94 90 86 69 60 68 69 70 69 56 49 59 58 48 45 45 41 33 32 25 10 9 11 11 11 14
48 43 36 32 35 43 49 53 53 56 60 60 68 80 90 95 97 95 94 92 74 66 68 73 72 69 59 54 52 53 54 47 47 41 33 30 22 9 10 10 11 13 15
43 49 39 32 37 43 48 51 53 54 63 63 69 81 90 99 98 97 97 92 80 78 78 75 74 70 64 59 49 48 51 48 47 39 33 26 14 10 9 10 13 13 14
30 41 43 32 37 44 49 54 54 54 64 63 70 79 87 95 97 97 95 94 87 84 85 79 80 76 69 62 47 47 48 47 46 39 29 21 10 9 9 11 12 12 13
40 33 39 38 34 46 50 55 58 56 63 68 65 75 89 96 96 98 98 97 90 86 84 88 81 74 72 66 50 49 49 46 46 40 29 17 8 8 10 12 12 14 16
39 44 38 37 39 39 47 51 58 59 65 72 64 74 88 94 98 97 98 99 98 90 92 92 86 81 73 66 54 57 51 45 44 39 33 18 8 8 10 14 14 16 18
27 31 46 42 40 37 47 52 55 61 66 73 68 71 86 97 99 97 99 97 99 96 95 90 90 81 75 67 63 66 54 43 42 40 35 22 10 10 11 13 17 19 19
21 27 31 39 44 38 39 46 52 64 66 71 73 68 81 96 99 98 98 98 99 96 92 98 92 87 78 70 70 69 56 44 43 42 37 26 14 13 13 14 16 17 19
25 24 30 38 39 42 44 44 48 59 69 71 74 67 79 90 94 96 99 99 99 97 94 98 90 84 72 73 78 72 55 44 46 45 41 33 27 15 17 18 17 17 18
27 24 31 37 48 51 63 50 45 55 73 77 75 73 74 99 93 88 84 82 79 89 89 94 91 63 65 69 73 75 54 44 48 46 42 35 33 23 23 22 22 19 17
32 29 33 38 44 59 63 57 42 44 61 74 81 75 73 84 89 95 81 68 58 59 66 73 70 62 66 76 78 76 58 41 50 48 45 39 37 36 34 29 25 23 19
36 36 35 37 44 50 66 62 59 47 59 71 84 80 83 82 94 95 89 78 54 53 52 53 63 66 82 85 84 79 59 39 47 48 45 40 38 40 37 34 30 26 22
39 42 39 46 45 46 60 69 66 60 71 70 82 87 78 85 87 87 88 82 79 59 53 53 61 68 84 91 90 84 70 46 39 48 43 40 38 39 39 36 33 29 24
44 46 44 47 46 47 53 74 67 59 64 60 67 81 84 88 84 91 90 80 78 70 63 63 63 64 80 88 93 87 81 44 43 48 42 40 37 37 38 38 37 34 30
54 50 51 51 48 54 59 60 81 66 74 60 76 77 87 87 78 90 87 88 80 76 74 79 73 75 77 86 95 99 93 44 45 46 41 39 38 36 36 37 39 38 34
58 58 56 55 51 57 58 55 76 77 68 80 63 75 78 89 84 82 87 89 80 83 81 91 89 89 93 88 94 95 86 50 36 42 44 43 38 36 38 38 38 38 37

GFSSE_prec_cthk_342.txt.gz
RH
48 41 39 40 43 43 40 37 36 36 29 31 46 55 61 63 70 68 73 77 82 79 77 64 46 39 40 44 44 42 36 27 23 23 26 27 25 22 24 31 41 39 37
46 43 40 41 44 42 39 33 30 31 26 30 46 54 59 67 69 70 74 76 79 81 75 55 46 42 42 44 41 36 33 27 29 29 34 29 24 24 26 31 36 33 29
48 43 41 42 42 41 38 30 25 24 22 30 46 55 59 69 74 76 75 74 74 75 75 60 54 47 44 42 35 31 30 32 33 34 32 26 22 24 25 30 30 30 31
47 41 42 41 41 41 40 33 22 21 22 32 46 56 63 73 78 78 67 67 70 64 62 61 59 53 46 41 33 30 33 36 37 34 30 21 19 21 26 34 33 34 33
47 43 42 42 40 41 40 36 29 22 23 33 46 58 67 77 82 82 70 66 58 61 52 55 54 52 47 40 37 37 36 37 37 31 25 22 24 34 37 40 33 31 30
47 46 45 41 39 38 39 39 35 27 25 34 45 56 73 82 86 87 74 67 58 57 60 57 54 52 43 38 38 39 38 38 34 26 26 29 31 34 37 28 23 24 23
45 45 42 42 39 36 37 39 39 35 32 36 45 60 80 90 91 90 79 68 60 57 54 54 51 53 42 34 36 40 40 38 31 23 28 30 30 30 23 16 16 18 17
47 43 40 39 37 38 37 41 44 43 39 40 49 60 83 96 93 92 88 73 67 59 50 49 50 49 46 36 35 40 41 36 30 30 30 28 27 27 12 10 13 14 12
43 37 33 33 36 38 40 47 46 48 47 49 52 61 79 94 94 91 95 78 69 63 52 49 49 47 49 44 43 44 42 37 35 36 31 28 26 18 7 11 12 12 12
41 35 32 28 30 36 41 50 48 49 54 54 57 61 77 92 96 94 93 84 74 64 55 50 52 52 48 49 48 48 40 39 41 39 32 29 27 9 9 11 13 14 14
45 42 38 33 29 32 40 47 53 51 56 59 60 71 80 93 98 94 95 87 79 63 56 63 66 60 58 50 47 48 43 42 43 42 34 28 24 10 11 14 14 15 16
68 58 50 43 37 36 37 46 53 54 55 61 59 67 77 94 98 94 96 96 80 66 62 72 69 67 64 57 52 58 50 46 45 42 34 28 17 12 13 11 13 15 15
67 62 59 57 44 43 42 47 52 55 57 59 62 66 76 93 99 98 97 97 83 72 67 74 74 69 66 57 48 54 53 50 46 41 31 27 11 12 13 11 12 14 16
52 52 59 64 55 40 49 51 56 57 58 59 67 67 74 90 96 97 99 94 82 82 74 71 79 77 68 61 50 48 51 52 46 39 29 19 8 11 13 14 13 16 17
47 47 48 56 57 51 45 56 59 60 60 58 69 71 69 87 90 97 98 95 86 89 84 82 82 78 70 63 56 49 50 50 46 39 28 12 9 12 14 15 17 17 17
35 39 39 42 50 54 48 49 62 61 62 61 69 76 66 88 96 98 98 96 87 88 90 89 86 85 77 65 63 54 50 48 44 39 28 13 9 11 12 14 17 17 18
28 25 32 36 41 51 50 51 58 65 66 67 68 78 70 71 95 97 96 97 91 92 96 96 89 89 79 69 69 58 50 46 43 39 28 18 9 8 9 13 15 18 18
32 25 27 33 34 44 50 51 52 60 64 73 72 78 76 71 95 98 99 99 98 97 96 95 95 92 84 76 71 62 56 47 43 38 32 21 11 9 10 12 15 17 18
35 32 29 32 37 39 48 54 53 55 61 70 80 78 82 75 90 97 98 98 98 97 96 98 98 94 86 76 75 68 63 50 41 40 36 28 19 11 13 14 16 17 18
30 34 32 33 37 39 48 50 54 57 61 63 78 84 83 81 89 98 97 98 98 98 98 99 98 96 91 81 82 74 67 54 42 43 39 33 28 16 16 17 17 17 17
30 32 31 34 39 39 47 51 57 57 52 60 70 88 88 83 85 96 96 99 98 99 99 99 99 96 96 85 93 77 73 58 42 46 43 38 32 23 24 22 21 21 19
31 33 36 36 35 45 43 47 53 57 60 57 62 81 93 91 82 82 96 93 91 91 99 99 99 97 95 85 90 80 78 60 41 45 45 42 35 34 32 31 26 24 22
29 35 37 39 38 42 48 47 50 64 61 64 66 72 85 96 88 90 94 86 84 83 88 97 98 98 90 68 70 76 78 63 43 37 45 43 38 35 36 35 31 27 24
29 33 39 42 41 40 52 49 58 69 68 66 61 73 82 94 96 87 93 86 81 72 73 72 89 93 72 68 74 84 80 66 58 43 39 42 40 36 37 37 34 30 26
35 32 37 43 44 43 48 56 58 65 71 72 70 80 75 83 98 96 99 89 83 78 76 72 61 61 66 67 82 89 86 79 65 47 41 40 40 35 36 37 36 34 29
39 36 36 43 48 49 51 57 62 62 68 78 75 80 76 83 89 96 92 86 92 87 80 76 66 56 60 68 82 88 90 92 84 58 42 41 42 37 35 35 35 35 34

GFSSE_prec_cthk_345.txt.gz
RH
45 37 37 38 40 39 35 31 32 36 34 32 43 55 59 65 73 74 73 82 83 84 88 79 78 70 58 52 40 36 27 25 23 24 26 27 26 24 31 38 39 38 36
43 39 38 37 39 37 36 31 31 33 34 32 44 55 58 68 73 77 75 82 83 83 74 62 53 48 46 40 39 35 27 26 27 30 31 26 24 26 33 40 33 31 29
48 43 41 39 37 39 38 34 27 30 31 32 44 56 60 71 73 77 78 80 82 77 62 44 39 38 41 38 34 31 29 28 28 33 29 26 23 26 30 34 29 29 29
50 48 43 41 40 41 41 38 29 28 28 32 45 57 62 70 75 78 81 80 81 79 66 50 47 40 38 33 31 30 29 32 32 29 28 23 22 22 28 31 29 32 29
51 52 46 45 43 42 41 40 36 29 26 34 44 56 64 71 78 84 83 81 77 74 73 62 60 48 39 32 30 32 33 34 32 29 23 21 26 31 38 34 31 30 26
47 51 49 46 44 40 40 41 39 34 28 32 46 57 64 73 82 88 81 79 73 65 62 56 55 51 43 38 40 39 33 32 32 30 23 25 31 34 34 26 24 24 21
41 46 48 47 44 41 37 40 41 37 35 38 46 54 66 76 86 89 82 80 70 63 60 56 53 49 44 39 40 40 36 34 32 25 27 30 31 33 22 16 18 19 16
46 45 49 45 40 38 38 38 42 41 39 44 51 57 68 85 93 93 90 86 72 61 64 60 55 53 44 38 39 40 39 35 30 30 28 28 28 22 13 12 14 15 12
52 48 43 42 36 35 37 39 46 45 44 50 63 65 72 85 95 95 88 91 70 61 62 58 53 50 45 40 37 40 38 34 34 32 29 28 27 14 7 10 13 13 12
55 48 45 42 37 36 35 40 50 48 48 58 64 74 73 83 96 97 91 93 74 68 58 54 51 46 48 46 43 42 38 40 39 35 31 29 24 8 8 12 13 13 15
64 57 51 47 44 39 37 41 48 55 52 61 69 75 80 87 94 96 91 96 81 73 61 55 51 47 49 51 49 42 41 44 41 39 34 28 19 10 11 13 13 13 15
70 67 59 52 51 49 41 40 47 55 60 63 70 67 77 87 95 95 94 96 89 76 64 56 51 58 58 56 51 49 49 45 43 42 34 25 14 10 13 16 17 17 16
68 65 62 62 59 57 51 45 45 53 59 63 67 71 71 80 96 98 98 97 92 80 64 60 65 68 64 58 51 53 57 51 46 42 33 22 11 10 14 19 18 18 19
59 64 59 59 59 63 60 49 50 55 59 61 64 74 73 78 97 99 97 94 94 82 70 68 72 72 69 62 55 54 58 56 51 42 31 16 9 12 18 19 17 15 17
47 49 54 54 56 56 61 61 54 56 60 63 61 69 80 72 94 99 96 96 96 86 78 76 76 77 72 66 59 59 55 56 54 44 29 12 8 10 19 20 20 21 20
34 37 44 46 47 50 52 55 55 55 63 66 64 65 79 77 87 99 98 99 97 87 88 78 74 77 75 71 64 65 57 54 53 46 27 11 6 12 19 21 22 21 22
31 30 33 37 39 39 45 53 54 56 62 66 71 65 75 81 83 99 97 98 93 88 92 88 84 82 80 74 67 68 61 51 51 45 30 13 7 10 18 20 24 26 22
36 32 30 32 29 34 39 50 52 54 61 65 66 77 73 81 82 96 97 96 93 93 93 91 92 92 86 83 74 72 66 54 50 44 34 17 9 13 13 15 20 22 21
33 36 32 31 29 30 35 38 50 51 56 62 62 69 77 79 84 91 93 99 95 95 96 94 96 95 92 88 80 75 71 57 49 45 39 22 12 10 14 12 17 18 20
26 28 34 33 32 30 34 39 46 52 54 55 55 64 77 81 82 84 94 99 98 95 95 98 98 95 97 93 86 79 77 61 51 45 41 30 22 12 11 13 15 18 17
20 23 27 34 34 33 33 39 45 50 52 55 56 59 70 81 85 84 92 99 97 98 96 98 99 98 99 95 91 86 81 66 57 44 43 37 30 22 12 16 18 18 17
27 22 24 30 35 37 38 39 43 48 51 53 63 59 63 73 86 88 97 96 99 97 99 98 99 99 99 97 89 86 83 70 62 42 43 41 35 28 21 22 21 22 20
30 27 24 27 33 38 38 38 45 46 51 56 65 64 60 70 85 91 97 98 97 93 95 96 99 99 98 98 93 84 90 78 63 45 42 43 40 34 31 29 29 26 22
36 33 31 27 31 37 40 40 40 46 48 59 66 63 66 69 76 92 97 95 96 93 91 94 99 99 98 96 96 95 94 82 68 51 42 40 43 39 33 33 33 30 26
40 37 35 32 29 35 42 43 43 51 55 52 61 64 69 70 78 83 94 95 94 93 85 91 99 99 99 97 96 94 97 80 71 53 51 39 41 41 37 35 35 33 28
43 41 37 35 33 33 39 45 47 46 56 54 62 69 72 74 76 82 87 94 97 87 79 82 93 96 99 98 96 85 80 70 70 62 61 46 44 41 39 35 35 33 31

GFSSE_prec_cthk_348.txt.gz
RH
49 45 38 37 39 38 34 30 29 33 31 31 43 54 59 64 72 74 76 85 85 90 93 90 84 77 72 63 35 25 26 23 21 24 25 26 27 34 36 41 40 38 33
49 47 40 39 39 39 36 29 28 31 30 32 43 54 59 67 75 77 80 85 87 91 93 85 78 71 66 45 31 27 24 22 25 26 24 24 26 30 38 37 37 32 28
49 50 44 41 40 41 41 35 27 27 29 30 42 55 62 71 76 80 83 85 86 86 80 75 69 60 52 38 31 26 22 25 31 29 30 28 29 30 35 31 30 26 27
51 48 47 43 41 43 44 40 34 25 28 31 42 56 65 71 78 81 81 87 86 76 58 46 43 43 40 34 31 25 24 28 32 29 30 26 27 26 31 28 26 27 26
57 56 53 44 42 42 43 44 40 33 26 36 45 58 68 72 77 82 84 83 82 73 54 46 38 40 38 31 29 26 27 32 31 33 29 27 28 26 31 28 28 26 24
68 60 56 53 47 44 41 43 44 39 32 32 47 60 67 73 80 84 87 86 82 79 65 52 47 42 36 31 29 29 33 36 35 34 30 27 32 35 30 27 26 23 20
65 62 60 60 54 48 44 43 45 44 39 37 46 58 67 73 83 87 90 86 80 77 78 63 58 46 36 34 35 36 36 36 40 37 34 32 33 31 26 22 21 19 14
66 62 60 59 54 48 48 46 47 47 44 43 52 60 67 79 87 94 93 90 85 70 64 59 55 48 43 41 40 42 40 35 40 37 30 30 31 25 18 14 15 15 12
65 60 62 61 56 46 42 43 43 49 50 58 60 68 70 81 91 93 92 90 91 78 61 59 58 53 45 41 43 43 39 37 43 34 28 29 29 17 11 11 13 14 11
67 58 53 52 51 55 47 39 41 48 49 58 67 80 85 81 90 96 95 90 94 74 71 63 59 57 48 44 40 38 38 39 45 37 33 29 26 12 11 14 14 14 14
73 64 57 50 49 46 46 46 43 49 49 57 66 71 88 86 90 96 98 94 94 73 72 66 60 54 51 49 43 42 43 50 48 43 38 27 21 13 15 15 17 18 21
72 73 70 65 55 48 45 43 50 59 59 61 67 72 77 88 91 96 97 93 92 78 72 62 57 52 52 53 49 44 52 53 51 47 39 26 18 14 16 17 18 21 22
82 80 77 72 63 60 55 51 46 54 61 64 68 69 75 67 91 99 99 96 92 92 78 61 55 53 61 59 51 49 55 54 52 48 39 26 16 14 16 19 21 21 22
72 72 72 67 63 59 61 63 57 46 52 66 68 66 74 71 82 98 95 96 95 97 85 67 59 61 64 67 61 53 59 63 55 49 40 25 17 13 17 20 22 20 23
58 59 66 64 60 58 59 63 64 60 56 59 73 69 68 70 73 94 97 96 96 99 92 73 65 70 71 73 66 60 57 61 59 53 42 22 18 16 17 20 21 18 21
42 48 48 50 51 51 55 55 59 59 59 62 66 71 69 68 72 91 98 96 95 99 94 82 71 70 75 74 69 65 62 59 60 57 43 24 17 16 18 21 22 22 21
36 38 41 40 43 45 47 50 49 52 55 61 66 71 74 69 73 89 98 96 96 96 95 89 81 84 76 74 71 69 69 60 59 58 46 28 16 16 18 21 21 22 23
33 34 34 36 34 35 38 41 43 48 52 58 63 65 75 70 72 82 97 96 99 99 94 90 87 81 80 78 72 75 75 69 58 56 49 31 17 15 18 21 22 24 22
30 34 32 34 33 30 31 33 36 41 50 54 61 64 68 75 73 78 91 96 98 97 99 95 92 87 87 80 80 80 79 73 60 55 51 36 19 16 17 16 19 21 20
22 25 33 32 32 30 30 30 31 35 44 50 54 56 66 72 76 76 84 98 98 96 95 97 96 96 95 90 88 85 84 77 68 56 51 42 25 16 18 18 15 19 18
25 21 21 30 32 31 31 31 30 32 38 45 49 52 59 67 76 81 85 91 97 99 95 97 98 97 98 97 97 90 88 82 75 59 52 47 33 21 17 18 19 24 17
30 26 23 22 26 32 34 34 34 34 35 39 46 54 54 61 70 76 85 90 91 99 99 95 97 99 98 97 98 93 93 87 80 62 52 50 41 29 22 19 20 22 25
36 33 28 25 24 23 30 35 36 38 37 38 44 57 56 58 63 72 83 94 95 97 97 98 98 98 99 99 97 93 94 88 83 69 54 52 46 36 28 24 17 22 26
36 38 37 30 27 26 24 29 35 38 40 40 42 50 51 58 62 66 76 90 94 98 97 94 96 98 98 98 98 96 95 90 87 76 57 49 48 42 35 31 28 27 27
37 37 39 39 33 30 29 27 31 39 39 40 42 46 49 58 65 65 71 81 91 94 96 92 94 97 98 99 99 98 95 94 83 83 65 49 47 42 41 36 32 32 31
43 39 39 40 39 34 32 32 31 37 40 42 45 43 45 61 69 68 72 77 93 96 96 97 93 94 97 99 99 99 97 94 88 92 78 58 49 45 43 40 36 33 34